TimeEDT,TemperatureF,Dew PointF,Humidity,Sea Level PressureIn,VisibilityMPH,Wind Direction,Wind SpeedMPH,Gust SpeedMPH,PrecipitationIn,Events,Conditions,WindDirDegrees,DateUTC
12:54 AM,51.1,39.0,63,29.75,10.0,SW,4.6,-,N/A,,Clear,230,2012-10-20 04:54:00
1:54 AM,50.0,39.0,66,29.75,10.0,WSW,4.6,-,N/A,,Clear,250,2012-10-20 05:54:00
2:54 AM,48.9,39.0,69,29.74,10.0,SW,4.6,-,N/A,,Clear,230,2012-10-20 06:54:00
3:54 AM,48.0,39.9,74,29.74,10.0,SW,4.6,-,N/A,,Clear,220,2012-10-20 07:54:00
4:54 AM,46.9,39.9,77,29.75,10.0,Calm,Calm,-,N/A,,Clear,0,2012-10-20 08:54:00
5:54 AM,48.0,39.9,74,29.76,10.0,Calm,Calm,-,N/A,,Clear,0,2012-10-20 09:54:00
6:54 AM,46.9,39.9,77,29.78,10.0,Calm,Calm,-,N/A,,Mostly Cloudy,0,2012-10-20 10:54:00
7:54 AM,46.0,39.9,79,29.81,10.0,West,3.5,-,N/A,,Clear,260,2012-10-20 11:54:00
8:54 AM,50.0,42.1,74,29.83,10.0,Calm,Calm,-,N/A,,Clear,0,2012-10-20 12:54:00
9:54 AM,57.9,42.1,56,29.84,10.0,North,4.6,-,N/A,,Clear,350,2012-10-20 13:54:00
10:54 AM,62.1,39.0,43,29.85,10.0,NNW,8.1,-,N/A,,Clear,340,2012-10-20 14:54:00
11:54 AM,63.0,39.0,41,29.84,10.0,NNW,11.5,-,N/A,,Clear,330,2012-10-20 15:54:00
12:54 PM,64.9,39.9,40,29.82,10.0,NW,10.4,-,N/A,,Clear,320,2012-10-20 16:54:00
1:54 PM,64.9,39.9,40,29.81,10.0,WSW,4.6,17.3,N/A,,Partly Cloudy,250,2012-10-20 17:54:00
2:54 PM,66.9,39.9,37,29.80,10.0,West,5.8,-,N/A,,Partly Cloudy,280,2012-10-20 18:54:00
3:54 PM,66.9,41.0,39,29.81,10.0,West,8.1,18.4,N/A,,Scattered Clouds,270,2012-10-20 19:54:00
4:54 PM,68.0,39.9,36,29.82,10.0,NW,13.8,17.3,N/A,,Scattered Clouds,310,2012-10-20 20:54:00
5:54 PM,64.0,41.0,43,29.84,10.0,NNW,4.6,-,N/A,,Scattered Clouds,330,2012-10-20 21:54:00
6:54 PM,60.1,41.0,49,29.87,10.0,North,3.5,-,N/A,,Partly Cloudy,350,2012-10-20 22:54:00
7:54 PM,57.9,39.0,49,29.91,10.0,NNW,6.9,-,N/A,,Partly Cloudy,330,2012-10-20 23:54:00
8:54 PM,57.0,37.9,49,29.91,10.0,NNW,3.5,-,N/A,,Scattered Clouds,340,2012-10-21 00:54:00
9:54 PM,54.0,39.9,59,29.95,10.0,Calm,Calm,-,N/A,,Partly Cloudy,0,2012-10-21 01:54:00
10:54 PM,53.1,39.9,61,29.96,10.0,Calm,Calm,-,N/A,,Partly Cloudy,0,2012-10-21 02:54:00
11:54 PM,51.1,39.0,63,29.98,10.0,Calm,Calm,-,N/A,,Clear,0,2012-10-21 03:54:00